Location: Chmeln�
(49.6483°N, 14.9871°E)
Time: 06:25:21
(UTC+00:00)

USA 234 - Pass Details

Date: 18 September 2020
Orbit: 1102 x 1106 km, 123.0° (Epoch: 16 October)

Event Time Altitude Azimuth Distance (km) Brightness Sun altitude
Rises 21:58:22 0° 67° (ENE) 3,924 6.2 -37.6°
Reaches altitude 10° 22:00:55 10° 63° (ENE) 2,966 5.6 -37.7°
Enters shadow 22:03:22 24° 53° (NE) 2,114 4.8 -37.8°
Exits shadow 22:06:55 50° 358° (N) 1,382 3.9 -37.9°
Maximum altitude 22:07:10 50° 350° (N) 1,378 3.9 -38.0°
Drops below altitude 10° 22:13:25 10° 278° (W) 2,965 5.7 -38.2°
Sets 22:15:58 0° 273° (W) 3,923 6.3 -38.3°
